Regional Weather Roundup
Issued by NWS Grand Forks, ND

Home | Current Version | Previous Version | Text Only | Print | Product List | Glossary Off
Versions: 1 2 3 4 5 6 7 8 9 10 11 12 13 14 15 16 17 18 19 20 21 22 23 24 25 26 27 28 29 30 31 32 33 34 35 36 37 38 39 40 41 42 43 44 45 46 47 48 49 50

000
ASUS43 KFGF 070631
RWRFGF
PRAIRIE TO PINES  WEATHER ROUNDUP
NATIONAL WEATHER SERVICE EASTERN NORTH DAKOTA/GRAND FORKS ND
1200 AM CST WED DEC 07 2016

 **SATELLITE DATA USED TO AUGMENT SKY COVER AT AUTOMATED STATIONS**
 *****  WEATHER ACROSS EASTERN NORTH DAKOTA  *****

CITY           SKY/WX    TMP DP  RH WIND       PRES   REMARKS
GRAND FORKS    LGT SNOW  17  12  80 W30G38    29.75R VSB 3/4 WCI  -3
6HR MIN TEMP:  17; 6HR MAX TEMP:  20; 6HR PCP:  0.02;

GRAND FRKS AFB LGT SNOW  16  10  79 NW23G36   29.76R WCI  -2
GRAND FRKS NWS   N/A     16 N/A N/A W31         N/A  WCI  -5
DEVILS LAKE    LGT SNOW   9   5  85 W37G44    29.82S FOG     WCI -16
6HR MIN TEMP:   9; 6HR MAX TEMP:  13; 6HR PCP: TRACE;

FARGO          LGT SNOW  15   9  76 W30G36    29.83R WCI  -5
WAHPETON ARPT  CLOUDY    14   9  79 W24G31    29.88R WCI  -5
$$

 ***** WEATHER ACROSS CENTRAL AND WESTERN NORTH DAKOTA  *****

CITY           SKY/WX    TMP DP  RH WIND       PRES   REMARKS
BISMARCK       MIX PCPN   5   1  83 W23G32    30.08R WCI -17
6HR MIN TEMP:   5; 6HR MAX TEMP:   7; 6HR PCP:  0.02;

MINOT          SNOW       7   3  84 W32G43    30.00R VSB 1/2 WCI -17
6HR MIN TEMP:   5; 6HR MAX TEMP:   7; 6HR PCP: TRACE;

JAMESTOWN      MIX PCPN   8   5  87 NW29G38   29.90R FOG     WCI -15
6HR MIN TEMP:   8; 6HR MAX TEMP:  12; 6HR PCP: TRACE;

MINOT AFB      SNOW       7   1  78 NW33G44   30.00R VSB 1/2 WCI -18
GARRISON         N/A      4   0  83 NW30      30.03R WCI -21
WILLISTON      FLURRIES   3  -4  72 NW12      30.19R WCI -13
6HR MIN TEMP:   3; 6HR MAX TEMP:   4; 6HR PCP: TRACE;

DICKINSON      CLOUDY    -1  -7  75 W26G35    30.08R HAZE    WCI -26
6HR MIN TEMP:  -1; 6HR MAX TEMP:   2; 6HR PCP: TRACE;

HETTINGER      CLOUDY     1  -6  72 W24       30.10R WCI -22
6HR MIN TEMP:   1; 6HR MAX TEMP:   3;

$$

 *****  OTHER AIRPORT OBSERVATIONS IN OUR AREA  *****

CITY           SKY/WX    TMP DP  RH WIND       PRES   REMARKS
WALHALLA       LGT SNOW  16  16 100 NW25G37   29.73R VSB 1   WCI  -3
GRAFTON AIRPOR FAIR      18  14  86 NW29G39   29.74R FOG     WCI  -2
VALLEY CITY AR LGT SNOW   9   9 100 NW31G39   29.88R VSB 3/4 WCI -14
CANDO          CLOUDY     9   7  92 NW30G38   29.86R FOG     WCI -14
CAVALIER APRT    N/A     18  14  86 NW26G39   29.71R FOG     WCI  -1
GWINNER        CLOUDY    14   9  79 W24G38    29.89S WCI  -5
SHEYENNE NWR     N/A     12   5  73 NW22      29.95  WCI  -7
ROLLA          LGT SNOW  10   9  92 NW35G47   29.81R VSB 3/4 WCI -13
 ***** THE ABOVE OBSERVATIONS ARE NON NWS ARE NOT QUALITY
       CONTROLLED AND MAY MIS-REPORT RAIN FOR SNOW...
$$

  *****  WEATHER ACROSS NORTHERN MINNESOTA  *****

CITY           SKY/WX    TMP DP  RH WIND       PRES   REMARKS
FLAG ISLAND    CLOUDY    25  21  86 NW16      29.46R WCI  12
WARROAD        LGT SNOW  25  19  80 W9        29.51R WCI  15
ROSEAU         LGT SNOW  25  19  80 W15G22    29.52R WCI  12
HALLOCK        LGT SNOW  21  19  93 NW32G40   29.64R VSB 3/4 WCI   2
THF RVR FALLS  LGT SNOW  18  14  86 W26       29.65R VSB 1   WCI  -1
BAUDETTE       FLURRIES  23  20  88 W9        29.48R WCI  13
6HR MIN TEMP:  20; 6HR MAX TEMP:  22; 6HR PCP: TRACE;

WASKISH        LGT SNOW  25  23  93 W16G24    29.51R WCI  12
CROOKSTON      LGT SNOW  18  16  93 NW30      29.72R VSB 1   WCI  -2
STEPHEN NDAWN    N/A     18  18 100 NW26        N/A  WCI  -1
GREENBUSH NDAW   N/A     19  19 100 NW23        N/A  WCI   2
$$
  *****  WEATHER ACROSS CENTRAL AND WEST MINNESOTA  *****

CITY           SKY/WX    TMP DP  RH WIND       PRES   REMARKS
FOSSTON        LGT SNOW  16  12  86 W18G26    29.66R VSB 1   WCI  -1
BEMIDJI        LGT SNOW  17  15  89 W21G30    29.59R VSB 1   WCI   0
PARK RAPIDS    LGT SNOW  15   8  73 W24       29.66R WCI  -4
6HR MIN TEMP:  15; 6HR MAX TEMP:  21; 6HR PCP:  0.02;

ELBOW LAKE     LGT SNOW  12   9  89 NW21G33   29.86S WCI  -7
WADENA         LGT SNOW  12  10  92 W17G24    29.73R WCI  -5
DETROIT LAKES  LGT SNOW  14  12  92 W24G32    29.74R WCI  -5
MOORHEAD       MIX PCPN  12  10  92 W28G35    29.82R VSB 1/2 WCI  -9
FERGUS FALLS   LGT SNOW  12  10  92 W24G33    29.89R WCI  -8
MORRIS MN      CLOUDY    14   9  79 W29G36    29.88R WCI  -7
STAPLES        LGT SNOW  14  10  85 W20G26    29.73R WCI  -3
$$
  *****  WEATHER ELSEWHERE ACROSS MINNESOTA  *****

CITY           SKY/WX    TMP DP  RH WIND       PRES   REMARKS
DULUTH         LGT SNOW  20  15  81 W24G30    29.56R BLWGSNOWWCI   3
6HR MIN TEMP:  20; 6HR MAX TEMP:  20; 6HR PCP: TRACE;

INTRNTL FALLS  LGT SNOW  20  17  88 W3        29.47R FOG
6HR MIN TEMP:  19; 6HR MAX TEMP:  20; 6HR PCP:  0.01;

ELY            LGT SNOW  21  18  86 W14       29.46R WCI   8
CLOQUET        FLURRIES  19  12  73 SW14G23   29.59R WCI   6
WHEATON        CLOUDY    16  10  79 W23G36    29.93R WCI  -2
BRAINERD       LGT SNOW  16  11  80 W23G33    29.70R WCI  -2
6HR MIN TEMP:  16; 6HR MAX TEMP:  19; 6HR PCP: TRACE;

HIBBING        LGT SNOW  20  17  88 SW13G20   29.52R FOG     WCI   7
6HR MIN TEMP:  19; 6HR MAX TEMP:  22; 6HR PCP: TRACE;

ALEXANDRIA     LGT SNOW  13   9  84 W26G38    29.82R FOG     WCI  -7
6HR MIN TEMP:  13; 6HR MAX TEMP:  16; 6HR PCP: TRACE;

SAINT CLOUD    CLOUDY    17  10  74 W20G33    29.81R WCI   1
6HR MIN TEMP:  17; 6HR MAX TEMP:  19; 6HR PCP: TRACE;

MINNEAPOLIS    CLOUDY    18   9  68 W20G29    29.86R WCI   2
6HR MIN TEMP:  18; 6HR MAX TEMP:  22; 6HR PCP: TRACE;

$$

  *****  WEATHER ACROSS SOUTH DAKOTA  *****

CITY           SKY/WX    TMP DP  RH WIND       PRES   REMARKS
SIOUX FALLS    FAIR      12   6  77 W20G28    30.05R WCI  -6
6HR MIN TEMP:  12; 6HR MAX TEMP:  17; 6HR PCP: TRACE;

BROOKINGS      FAIR       8   3  80 W22G30    29.97S WCI -12
WATERTOWN      CLOUDY     8   3  80 W17G32    29.94S WCI -10
6HR MIN TEMP:   8; 6HR MAX TEMP:  11; 6HR PCP: TRACE;

HURON          CLEAR      9   2  73 NW21G30   30.09R WCI -11
6HR MIN TEMP:   9; 6HR MAX TEMP:  12;

SISSETON         N/A     12   4  70 NW29G38   29.91R WCI  -9
ABERDEEN       CLOUDY    10   1  67 W23G32    30.02R WCI -10
6HR MIN TEMP:  10; 6HR MAX TEMP:  12; 6HR PCP: TRACE;

MITCHELL       CLEAR     11   4  73 NW20      30.14R WCI  -7
PIERRE         CLOUDY    10   3  73 NW24G30   30.13R WCI -10
6HR MIN TEMP:  10; 6HR MAX TEMP:  12;

MOBRIDGE       PTCLDY     8  -2  63 NW25G35   30.04S WCI -13
RAPID CITY     PTCLDY     4  -3  73 NW17      30.12R WCI -16
6HR MIN TEMP:   4; 6HR MAX TEMP:   9;

$$

  *****  SOME WEATHER IN NEARBY STATES *****

CITY           SKY/WX    TMP DP  RH WIND       PRES   REMARKS
GLASGOW MT     CLOUDY     3  -4  72 NW24G32   30.26R WCI -20
6HR MIN TEMP:   0; 6HR MAX TEMP:   3;

GREAT FALLS MT CLOUDY    -3  -9  75 W5        30.30R WCI -13
6HR MIN TEMP:  -3; 6HR MAX TEMP:   0;

CHEYENNE WY    LGT SNOW  12   8  84 E8        29.86R FOG     WCI   0
6HR MIN TEMP:  12; 6HR MAX TEMP:  16; 6HR PCP:  0.04;

SCOTTSBLUFF NE CLOUDY    15   2  56 CALM      30.05R
6HR MIN TEMP:  15; 6HR MAX TEMP:  21;

OMAHA NE       FAIR      22  11  62 NW13      30.16R WCI  10
6HR MIN TEMP:  20; 6HR MAX TEMP:  31;

DES MOINES IA  FAIR      24  12  60 W20       30.10R WCI  10
6HR MIN TEMP:  24; 6HR MAX TEMP:  30;

DAVENPORT IA   FAIR      26  18  71 W16       30.04R WCI  14
6HR MIN TEMP:  26; 6HR MAX TEMP:  29;

CHICAGO IL     FAIR      26  19  74 W15       29.97R WCI  14
6HR MIN TEMP:  26; 6HR MAX TEMP:  31;

EAU CLAIRE WI  FLURRIES  18  12  77 W16G26    29.81R WCI   3
6HR MIN TEMP:  18; 6HR MAX TEMP:  23; 6HR PCP: TRACE;

LA CROSSE WI   CLOUDY    23  14  68 W10       29.92S WCI  12
6HR MIN TEMP:  23; 6HR MAX TEMP:  27; 6HR PCP: TRACE;

$$

  *****  SOME NATIONAL WEATHER *****

CITY           SKY/WX    TMP DP  RH WIND       PRES   REMARKS
LA GUARDIA NY  LGT RAIN  43  38  82 E13       29.85F
6HR MIN TEMP:  42; 6HR MAX TEMP:  45; 6HR PCP:  0.32;

RALEIGH NC     CLOUDY    44  41  89 VRB3      29.89R
6HR MIN TEMP:  43; 6HR MAX TEMP:  44;

ATLANTA GA     FAIR      51  46  83 NW10      29.96S
6HR MIN TEMP:  52; 6HR MAX TEMP:  58; 6HR PCP: TRACE;

NEW ORLEANS LA CLOUDY    56  55  97 NE5       30.02F
6HR MIN TEMP:  56; 6HR MAX TEMP:  57;

OKLAHOMA CITY  FAIR      34  21  59 E3        30.10R
6HR MIN TEMP:  33; 6HR MAX TEMP:  41;

ALBUQUERQUE NM PTCLDY    39  19  44 S10       29.88R
6HR MIN TEMP:  35; 6HR MAX TEMP:  43;

SALT LAKE CITY PTCLDY    26  16  65 S6        29.95R WCI  19
6HR MIN TEMP:  24; 6HR MAX TEMP:  28;

LOS ANGELES CA PTCLDY    57  52  83 SW5       30.01R
6HR MIN TEMP:  57; 6HR MAX TEMP:  60;

BOISE ID       PTCLDY  C1F1C2F2C3F3C4F4C5F5C6F6C7F7C8F8C9F9CaFaCbFbCcFcCd!



USA.gov is the U.S. government's official web portal to all federal, state and local government web resources and services.